Location: Eagle Observatory
(42.5300°N, 88.2800°W)
Time: 17:45:50
(UTC-05:00)

Hubble Space Telescope - Visible Passes

Search period start: 24 April 2018 00:00
Search period end: 04 May 2018 00:00
Orbit: 537 x 541 km, 28.5° (Epoch: 24 April)

Date Brightness Start Highest point End Pass type
(mag) Time Alt. Az. Time Alt. Az. Time Alt. Az.
29 Apr 3.1 21:26:39 10° SSW 21:27:28 11° S 21:27:28 11° S visible
30 Apr 3.0 21:16:21 10° SSW 21:17:33 11° S 21:17:47 11° S visible
01 May 3.1 21:06:18 10° SSW 21:07:05 10° S 21:07:52 10° S visible
